Wind_Speed
17 17 16 15 14 13 12 10 10 11 10 10 10 9 10 10 10 10 9 8 8 8 8 8 8 8 8 9 9 10 10 10 8 7 6 8 8 5 5 6 6 7
17 17 17 16 15 14 14 12 11 11 11 10 9 10 11 12 11 11 10 10 8 8 8 7 8 9 9 9 8 8 9 9 7 7 7 8 8 6 6 7 6 7
18 17 17 16 15 14 14 13 12 12 12 10 9 10 11 11 11 12 12 12 9 9 9 8 8 8 8 9 10 8 8 9 8 7 8 9 10 9 7 7 6 6
20 18 17 16 14 14 13 13 13 13 13 11 11 11 10 10 11 11 12 11 11 10 10 9 8 8 8 9 9 8 8 9 8 7 8 9 9 9 7 7 7 7
21 19 18 16 15 15 14 14 14 13 12 11 12 12 12 12 11 11 11 10 10 11 11 10 9 9 10 9 8 8 8 8 8 7 8 7 8 8 6 7 8 8
20 20 19 18 17 16 15 14 14 14 13 13 13 12 13 13 12 12 12 10 9 9 9 11 11 9 9 9 9 9 8 8 8 7 7 7 7 7 7 7 8 9
20 20 20 19 18 17 17 16 15 15 14 14 14 13 13 13 13 13 11 10 10 8 9 11 11 8 9 9 9 9 8 8 8 8 8 8 8 8 8 8 8 9
20 20 21 20 18 18 18 18 16 14 14 14 14 14 14 13 13 12 12 12 12 10 9 10 9 7 9 9 9 9 8 8 8 8 8 9 8 9 9 9 8 9
19 18 18 19 18 18 17 17 16 14 14 14 14 14 14 13 13 12 12 13 13 11 11 10 9 9 10 10 9 10 10 9 9 9 9 8 8 9 9 9 9 9
19 19 18 18 18 18 17 17 16 15 15 14 14 14 14 14 14 12 12 13 13 13 13 12 11 12 11 9 9 10 10 10 10 9 9 9 9 10 10 10 11 10
20 20 19 18 18 18 17 17 16 15 16 15 14 14 13 14 14 14 14 14 13 13 13 13 12 13 12 9 9 10 11 11 10 8 8 9 9 9 10 10 10 10
20 20 19 19 19 19 17 16 16 17 18 17 15 14 14 13 13 15 15 14 13 12 12 12 12 12 11 10 10 11 12 11 10 9 9 9 8 8 9 10 10 11
20 19 19 18 19 19 18 17 16 17 16 15 15 14 14 13 13 15 15 13 12 13 12 13 13 12 11 10 10 10 10 10 10 10 10 10 9 10 10 11 11 12
20 20 19 19 18 19 19 18 16 15 14 15 16 15 14 13 13 15 15 13 13 13 12 12 12 12 11 10 10 10 10 11 11 11 11 11 11 11 12 12 12 12
22 21 20 20 19 19 20 20 19 16 14 14 14 14 15 14 13 14 14 13 14 13 12 13 13 13 13 11 10 11 10 10 10 10 11 11 12 12 13 13 13 13
21 22 22 22 22 21 21 22 22 20 18 15 12 12 14 14 13 13 13 12 14 15 15 16 16 15 14 12 11 12 11 10 11 10 10 10 11 12 12 11 12 12
20 20 21 22 23 22 21 22 22 21 21 19 15 12 13 14 14 14 14 12 14 16 18 18 16 15 14 13 12 12 11 10 11 9 9 10 10 11 12 11 10 10
21 21 21 21 22 22 22 23 23 21 20 21 19 17 16 15 13 14 13 10 9 11 14 16 15 13 12 12 12 11 10 11 11 10 9 9 11 12 14 13 12 12
22 22 22 22 22 22 23 24 24 23 21 20 20 20 19 17 16 15 14 12 11 9 9 11 13 12 10 11 12 11 11 12 12 12 12 13 14 14 14 13 13 13
24 23 22 22 21 21 22 23 24 24 22 20 19 19 19 19 19 19 17 15 15 14 9 9 13 13 11 12 13 13 13 13 13 13 14 15 15 14 13 12 13 14
23 23 23 22 20 19 19 22 24 24 23 21 20 19 20 21 21 21 19 15 15 15 11 10 13 14 13 13 13 14 14 14 15 15 15 14 13 13 13 13 14 15
22 22 21 20 19 19 20 22 25 25 23 22 21 21 22 22 21 21 19 18 17 15 11 12 14 15 15 14 14 14 14 15 15 14 13 12 11 12 13 13 14 15
20 20 20 19 19 19 21 23 23 23 22 21 20 21 22 23 23 24 22 20 20 17 14 14 15 15 15 14 13 14 15 14 13 12 12 12 13 14 14 14 15 15
17 19 19 19 19 18 20 22 23 22 21 21 21 22 24 25 25 25 25 23 21 21 19 16 13 13 14 14 13 14 13 12 11 12 12 12 13 14 14 13 14 15
15 17 18 19 19 18 19 21 22 22 21 21 22 23 25 25 21 20 23 23 21 20 19 16 13 12 13 13 12 11 11 10 10 10 10 9 9 10 8 7 10 14
13 16 17 19 19 19 18 19 21 22 20 19 21 23 23 23 21 20 23 23 20 19 18 16 15 13 11 9 8 7 6 6 7 7 7 7 7 7 5 4 8 13
Wind_Direction
203 206 205 207 210 204 200 203 202 204 209 208 208 200 200 208 206 211 222 221 224 225 220 225 227 225 228 231 226 222 233 242 245 251 258 271 280 278 276 281 280 288
204 208 210 212 214 210 203 201 201 207 216 214 205 197 201 209 208 207 214 224 231 229 228 232 231 231 231 233 237 234 241 250 248 243 250 264 274 271 267 277 280 286
204 207 210 211 213 215 209 205 202 203 213 218 210 203 202 206 211 211 211 217 223 225 235 246 243 241 239 238 245 245 244 255 254 243 244 252 261 265 265 274 283 285
205 205 209 209 210 215 212 211 212 209 210 212 211 215 212 205 212 221 223 222 217 215 229 247 246 241 243 246 252 253 250 257 261 254 253 260 269 274 273 277 286 284
207 204 206 207 208 215 214 211 215 216 214 213 212 215 217 214 212 221 232 236 225 217 222 237 243 238 243 250 253 258 259 262 270 272 271 278 285 285 285 289 293 289
209 206 206 207 208 215 219 213 213 216 216 215 215 216 218 219 214 214 228 241 238 226 223 238 249 242 242 253 257 262 266 261 262 271 278 289 294 289 288 286 285 285
208 207 208 209 208 213 217 214 213 215 215 213 213 216 220 223 221 216 221 234 240 231 217 234 252 244 234 251 263 268 277 274 263 265 277 292 299 294 288 282 279 281
207 210 212 210 208 214 218 215 215 217 217 214 212 214 220 227 230 224 217 222 233 239 231 236 250 238 228 244 263 271 278 278 271 268 271 279 289 287 280 276 274 276
209 214 217 211 208 217 221 217 216 218 217 216 215 214 216 222 231 233 226 219 221 232 242 244 242 240 241 246 254 259 263 265 268 268 264 265 276 285 286 289 287 285
208 210 212 210 210 215 218 217 217 217 217 216 217 220 220 222 227 232 235 230 219 219 231 237 235 241 250 250 250 254 256 260 266 268 271 275 282 292 298 300 297 296
207 209 209 209 212 214 216 218 216 215 217 214 215 222 226 228 227 225 232 239 233 225 231 239 238 240 245 241 246 258 258 261 268 274 283 286 286 291 295 297 301 304
207 210 212 212 214 215 216 218 218 221 220 214 215 220 223 230 231 223 228 242 244 234 233 241 244 244 245 239 241 253 257 259 264 273 284 288 289 292 296 303 313 315
208 209 213 215 217 217 216 216 223 228 223 218 224 222 218 227 230 224 228 239 246 241 233 237 247 248 246 245 244 252 262 264 266 272 278 283 290 297 300 303 308 310
208 210 212 215 219 221 219 216 219 225 222 222 228 224 219 224 226 231 239 238 239 246 241 236 246 251 249 249 246 250 262 269 274 277 275 278 287 293 297 300 301 304
207 209 212 214 214 219 223 220 217 217 217 222 227 225 224 224 223 235 247 242 237 243 242 232 233 238 242 242 243 252 262 267 273 279 277 280 287 290 294 298 300 304
210 210 213 215 213 215 222 224 221 217 214 214 217 226 229 226 225 230 233 236 238 234 228 228 231 238 244 241 241 251 260 263 268 276 283 293 299 298 299 301 300 301
212 212 214 216 216 217 221 226 227 225 222 218 214 218 223 223 232 236 227 227 234 228 226 233 240 248 250 245 241 245 252 260 267 277 297 312 313 305 302 303 301 300
211 211 212 214 216 219 223 227 230 232 231 227 223 222 220 218 228 241 239 234 232 224 224 233 241 249 247 239 237 244 249 254 257 261 275 288 293 294 294 293 290 291
212 213 215 216 216 219 225 229 234 237 237 236 234 231 230 227 227 238 247 254 259 256 243 239 243 251 250 240 237 242 245 246 248 254 266 277 286 290 289 285 284 287
215 217 219 221 222 223 228 234 239 242 242 242 241 237 237 234 232 238 244 248 255 261 257 249 247 246 244 240 236 237 240 243 247 259 274 282 284 284 285 286 286 290
215 218 220 223 226 226 230 236 241 242 242 241 239 237 236 234 235 241 241 236 243 250 246 243 245 241 235 234 234 238 244 252 260 269 278 283 280 279 286 291 291 291
212 214 219 225 227 228 231 234 236 236 234 232 232 233 234 233 234 238 235 229 235 242 242 242 245 244 241 239 242 250 258 263 269 272 274 277 279 282 286 289 290 291
212 210 219 229 228 227 228 228 228 228 226 227 230 231 232 231 230 231 231 229 231 235 240 241 239 240 244 248 254 263 267 269 271 273 274 277 281 285 289 291 292 293
211 205 206 215 222 227 227 225 227 229 229 229 231 232 233 232 230 229 229 229 230 234 239 239 232 233 245 256 265 271 276 280 283 286 288 288 288 289 291 293 292 289
209 205 197 199 207 216 220 222 227 230 229 227 229 232 233 229 222 221 226 227 227 229 232 232 229 230 241 254 269 280 289 297 300 298 295 293 292 294 296 298 292 289
200 199 200 203 204 208 219 228 230 228 227 228 231 233 229 220 213 216 223 223 218 218 222 226 228 231 235 246 269 291 303 309 309 307 306 308 310 310 310 294 285 293
Height
1559 1560 1561 1563 1564 1565 1566 1568 1569 1570 1571 1571 1572 1573 1574 1575 1576 1576 1576 1577 1577 1578 1578 1579 1579 1580 1581 1582 1583 1584 1584 1584 1585 1585 1585 1586 1586 1586 1587 1587 1587 1588
1557 1559 1560 1561 1563 1564 1565 1566 1568 1569 1570 1570 1571 1572 1573 1574 1575 1575 1576 1576 1577 1577 1577 1578 1579 1579 1580 1581 1581 1582 1583 1583 1584 1584 1584 1585 1585 1585 1586 1586 1586 1586
1556 1557 1559 1560 1561 1563 1564 1565 1566 1568 1569 1569 1570 1571 1572 1573 1573 1574 1575 1575 1576 1576 1577 1577 1578 1579 1579 1580 1581 1581 1582 1582 1583 1583 1583 1584 1584 1584 1584 1585 1585 1585
1555 1556 1558 1559 1560 1562 1563 1564 1565 1566 1567 1568 1569 1570 1571 1571 1572 1573 1573 1574 1575 1575 1576 1576 1577 1578 1578 1579 1579 1580 1581 1581 1581 1582 1582 1582 1583 1583 1583 1583 1584 1584
1553 1555 1556 1558 1560 1561 1562 1563 1564 1565 1566 1567 1568 1569 1569 1570 1571 1571 1571 1572 1573 1574 1574 1575 1576 1577 1577 1578 1578 1579 1580 1580 1580 1581 1581 1582 1582 1582 1582 1583 1583 1583
1552 1553 1555 1557 1558 1560 1561 1562 1563 1564 1565 1566 1567 1568 1568 1569 1569 1570 1571 1571 1571 1572 1573 1574 1575 1575 1576 1577 1577 1578 1579 1579 1580 1580 1581 1581 1581 1581 1582 1582 1582 1582
1551 1552 1554 1555 1557 1558 1559 1560 1561 1562 1563 1564 1565 1566 1567 1567 1568 1569 1570 1571 1571 1571 1572 1573 1573 1574 1575 1576 1576 1577 1577 1578 1579 1580 1580 1580 1581 1581 1580 1580 1580 1580
1550 1551 1552 1554 1555 1557 1558 1559 1560 1561 1562 1563 1564 1565 1566 1566 1567 1568 1569 1570 1570 1570 1571 1572 1572 1573 1574 1574 1575 1576 1576 1577 1578 1578 1579 1579 1579 1579 1579 1578 1578 1578
1549 1550 1551 1552 1554 1556 1556 1557 1559 1560 1561 1562 1562 1564 1564 1565 1565 1566 1567 1568 1568 1569 1570 1570 1571 1571 1572 1573 1574 1575 1575 1575 1575 1576 1577 1577 1577 1577 1577 1577 1577 1577
1548 1549 1550 1551 1553 1555 1555 1557 1558 1559 1560 1561 1562 1563 1563 1564 1564 1564 1565 1566 1567 1568 1569 1569 1570 1571 1571 1572 1573 1573 1573 1574 1574 1574 1575 1575 1575 1576 1576 1576 1576 1576
1547 1548 1549 1551 1552 1554 1555 1556 1557 1558 1559 1559 1560 1562 1562 1562 1563 1563 1564 1565 1566 1567 1567 1568 1569 1570 1570 1571 1572 1571 1572 1572 1573 1573 1574 1574 1575 1575 1575 1575 1575 1575
1545 1547 1548 1549 1551 1552 1554 1555 1556 1557 1557 1558 1559 1560 1561 1562 1562 1563 1563 1563 1564 1566 1566 1567 1568 1569 1569 1570 1571 1570 1570 1571 1572 1572 1573 1573 1574 1574 1574 1574 1574 1574
1544 1545 1547 1548 1550 1551 1552 1554 1555 1555 1556 1557 1558 1559 1560 1561 1561 1562 1562 1563 1564 1564 1565 1566 1566 1567 1568 1568 1569 1569 1569 1570 1571 1571 1572 1572 1572 1573 1573 1573 1572 1572
1542 1544 1546 1547 1549 1550 1551 1552 1553 1555 1556 1557 1558 1558 1559 1560 1561 1561 1561 1562 1563 1563 1564 1564 1565 1566 1567 1567 1568 1568 1569 1569 1570 1570 1571 1571 1571 1571 1571 1571 1571 1571
1540 1542 1544 1546 1547 1548 1549 1551 1552 1554 1555 1556 1557 1557 1558 1559 1560 1560 1560 1561 1562 1562 1563 1563 1564 1564 1565 1566 1567 1567 1568 1569 1569 1570 1570 1570 1570 1570 1571 1571 1571 1571
1538 1540 1541 1543 1545 1546 1547 1549 1550 1552 1553 1554 1555 1556 1557 1558 1559 1560 1559 1560 1560 1561 1561 1561 1562 1563 1564 1565 1566 1567 1567 1568 1568 1569 1569 1569 1570 1570 1570 1570 1570 1570
1535 1537 1539 1540 1542 1544 1546 1547 1549 1550 1551 1553 1554 1555 1556 1557 1558 1558 1556 1557 1558 1560 1560 1560 1561 1563 1563 1564 1565 1566 1566 1567 1567 1568 1568 1569 1569 1569 1569 1569 1568 1569
1533 1535 1536 1538 1540 1543 1545 1546 1548 1549 1551 1552 1553 1554 1555 1556 1558 1555 1553 1555 1557 1558 1559 1560 1560 1561 1562 1563 1563 1564 1565 1565 1566 1567 1567 1568 1568 1567 1567 1567 1567 1567
1530 1532 1534 1537 1539 1542 1544 1545 1547 1548 1549 1551 1552 1553 1554 1555 1556 1553 1552 1554 1555 1555 1558 1560 1560 1560 1560 1561 1562 1562 1563 1564 1565 1565 1566 1566 1566 1566 1565 1565 1565 1565
1529 1531 1533 1536 1538 1541 1543 1545 1546 1547 1548 1549 1550 1551 1552 1553 1553 1552 1552 1554 1553 1553 1555 1557 1558 1558 1559 1559 1560 1561 1562 1563 1563 1564 1564 1565 1565 1564 1563 1563 1563 1563
1528 1531 1533 1535 1537 1539 1542 1544 1546 1546 1547 1547 1548 1549 1549 1550 1550 1550 1551 1553 1552 1552 1554 1555 1556 1557 1557 1558 1559 1560 1561 1561 1562 1562 1562 1562 1562 1562 1561 1561 1561 1561
1528 1531 1534 1535 1536 1537 1539 1542 1544 1545 1545 1545 1545 1546 1546 1547 1548 1548 1549 1550 1550 1550 1552 1553 1554 1555 1556 1557 1558 1558 1559 1560 1560 1560 1560 1560 1560 1560 1560 1560 1559 1559
1528 1532 1534 1534 1535 1535 1537 1539 1541 1543 1543 1543 1544 1544 1543 1544 1545 1545 1546 1547 1547 1548 1549 1550 1552 1553 1554 1556 1556 1557 1557 1558 1558 1558 1558 1558 1558 1558 1558 1557 1557 1556
1528 1530 1531 1532 1533 1534 1536 1537 1540 1541 1541 1540 1541 1540 1540 1542 1542 1541 1543 1544 1545 1546 1547 1549 1551 1552 1553 1554 1554 1555 1555 1556 1556 1555 1556 1556 1556 1556 1556 1555 1554 1554
1526 1527 1529 1530 1530 1532 1533 1535 1537 1538 1537 1537 1537 1537 1538 1540 1540 1539 1541 1542 1543 1544 1545 1547 1549 1550 1550 1551 1552 1553 1553 1554 1554 1553 1554 1554 1553 1554 1554 1553 1552 1551
1524 1527 1527 1527 1528 1529 1531 1532 1533 1533 1533 1533 1533 1533 1535 1537 1538 1538 1538 1539 1541 1542 1544 1546 1547 1547 1547 1548 1549 1551 1551 1552 1552 1552 1552 1552 1552 1552 1552 1552 1551 1549